Showing default

COSMOS 2546, 45608

Orbit data source: Space-Track

COSMOS 2546, 45608 is a payload satellite owned by VVKO VKS (CIS) in HEO that was launched on Fri, 22 May 2020 UTC via a SOYUZ-2-1B launch vehicle from the Plesetsk Missile And Space Complex (PKMTR). Payload-class satellites include a variety of spacecraft equipped with specific instruments for various scientific and technological missions. These include communications satellites like Starlink; space stations such as the ISS; scientific satellites like the Hubble; Earth observation satellites from companies like Planet Labs, Umbra, and HawkEye 360; GPS; miniature CubeSats for education and research; and military/defense satellites.

Loading next visibility...
Identifier
45608, 2020-031A
Orbit
HEO
Country
Flag of CISCIS
Related business
Manufacturer
RKKE/KOMET
Mission
Operational Defense Early Warn
Bus & Motor
14F142, Unknown motor
Mass
2,550 kg wet, ~2,000 kg dry
Launch date (UTC)
2020-05-22 (5 years ago)
Launch vehicle
SOYUZ-2-1B
Launch site
Plesetsk Missile And Space Complex (PKMTR)
Object type
Payload
Rocket body
Debris
Shape & HBR
Box + 2 Pan, Unknown HBR
Radar Cross Section
14.304 m², Large (>1 m²)

Expand to show TLE details & history
Last TLE update: 2 days ago

TLE from 2 days ago
0 COSMOS 2546
1 45608U 20031A   25309.19224293  .00000262  00000-0  00000-0 0  9990
2 45608  63.1472  94.4999 6968185 265.3584  19.0882  2.00548926 39970
Epoch: 2025-11-05T04:36Z
TLE epoch observation values (Epoch: 2025-11-05T04:36:49.789Z)
Latitude
-0.00001°
Longitude
-19.45897°
Altitude
8,124.855 km
Speed
6.322 km/s
True Right ascension
06h 17m 40s
True Declination
0° 00' 00"
Sunlit
Object was in daylight at epoch
Visualization orbit readout
Latitude
Unknown
Longitude
Unknown
Altitude
Unknown
Speed
Unknown
Apparent Right ascension
Unknown
Apparent Declination
Unknown
Sunlit
N/A
Visualization observer readout
Local Sidereal Time
20:44:35
Azimuth
Unknown
Elevation
Unknown
Doppler factor
Unknown
Orbital elements
Apogee altitude
38,690.7 km
Perigee altitude
1,674.603 km
Semi-major axis
26,560.789 km
Eccentricity
0.69682
Inclination
63.1472°
RAAN
94.4999°
Arg. of periapsis
265.3584°
True anomaly
94.83744°
Mean anomaly
19.0882°
Eccentric anomaly
49.40352°
Mean motion
0.5014 °/min
Orbital period
717.99 mins
BSTAR
0
Loading maneuver chart data...
Computing Atmospheric mass density...
Loading historical data...
Loading historical data...
Loading historical data...
Loading historical data...
Loading historical data...
Loading historical data...
Loading historical data...
Other satellites on launch #31 in the year 2020 (2020-05-22 UTC)

Documentation

Showing up to 5 results
|